Rockland, ME

3:08 PM EDT on June 28, 2017 (GMT -0400)
Knox County Regional

Weather History for KRKD - October, 2011

Change the Weather History Date:

Tuesday, October 4, 2011

  Actual Average Record
Temperature  
Mean Temperature 56 °F -  
Max Temperature 57 °F 56 °F 78 °F (2007)
Min Temperature 55 °F 41 °F 33 °F (2004)
Degree Days  
Heating Degree Days 9    
Growing Degree Days 6 (Base 50)    
Moisture  
Dew Point 53 °F    
Average Humidity 89    
Maximum Humidity 94    
Minimum Humidity 82    
Precipitation  
Precipitation 0.02 in - - ()
Sea Level Pressure  
Sea Level Pressure 29.97 in    
Wind  
Wind Speed 8 mph (NE)    
Max Wind Speed 14 mph    
Max Gust Speed 24 mph    
Visibility 10 miles    
Events      
Averages and records for this station are not official NWS values.
T = Trace of Precipitation, MM = Missing Value Source: NWS Daily Summary

Daily Weather History Graph

Daily Weather History Graph

Search for Another Location

Airport or City:

Trip Planner

Search our weather history database for the weather conditions in past years. The results will help you decide how hot, cold, wet, or windy it might be!

Date:

Astronomy

Oct. 04, 2011 Rise Set
Actual Time 6:37 AM EDT 6:12 PM EDT
Civil Twilight 6:08 AM EDT 6:41 PM EDT
Nautical Twilight 5:34 AM EDT 7:14 PM EDT
Astronomical Twilight 5:01 AM EDT 7:48 PM EDT
Moon 2:25 PM EDT (10/4) No Moon Set
Length of Visible Light 12h 32m
Length of Day
11h 35m
First Quarter, 56% of the Moon is Illuminated
Oct 4
First Quarter
Oct 11
Full
Oct 19
Last Quarter
Oct 26
New
Nov 2
First Quarter

Hourly Weather History & Observations

Time (EDT) Temp. Dew Point Humidity Pressure Visibility Wind Dir Wind Speed Gust Speed Precip Events Conditions
12:15 AM 55.4 °F 53.6 °F 94% 30.07 in 1.2 mi NE 6.9 mph - N/A   Overcast
12:35 AM 55.4 °F 51.8 °F 88% 30.07 in 10.0 mi NE 5.8 mph - N/A   Overcast
12:55 AM 55.4 °F 51.8 °F 88% 30.09 in 7.0 mi ENE 4.6 mph - N/A   Overcast
1:15 AM 55.4 °F 51.8 °F 88% 30.09 in 10.0 mi NE 3.5 mph - N/A   Overcast
1:35 AM 55.4 °F 53.6 °F 94% 30.09 in 10.0 mi ENE 3.5 mph - N/A   Overcast
1:55 AM 55.4 °F 53.6 °F 94% 30.09 in 10.0 mi NE 3.5 mph - N/A   Overcast
2:15 AM 55.4 °F 53.6 °F 94% 30.08 in 10.0 mi NE 5.8 mph - N/A   Overcast
2:35 AM 55.4 °F 53.6 °F 94% 30.06 in 5.0 mi NE 8.1 mph - N/A   Overcast
2:55 AM 55.4 °F 53.6 °F 94% 30.05 in 5.0 mi NNE 4.6 mph - 0.01 in   Overcast
3:15 AM 55.4 °F 53.6 °F 94% 30.05 in 9.0 mi NE 3.5 mph - N/A   Overcast
3:35 AM 55.4 °F 53.6 °F 94% 30.05 in 10.0 mi NNE 3.5 mph - N/A   Overcast
4:15 AM 55.4 °F 53.6 °F 94% 30.03 in 10.0 mi NE 4.6 mph - N/A   Overcast
4:35 AM 55.4 °F 53.6 °F 94% 30.03 in 10.0 mi ENE 5.8 mph - N/A   Overcast
4:55 AM 55.4 °F 53.6 °F 94% 30.03 in 10.0 mi NE 8.1 mph - N/A   Overcast
5:15 AM 55.4 °F 53.6 °F 94% 30.03 in 10.0 mi NE 5.8 mph - N/A   Overcast
5:35 AM 55.4 °F 53.6 °F 94% 30.02 in 10.0 mi NE 8.1 mph - N/A   Overcast
5:55 AM 55.4 °F 53.6 °F 94% 30.02 in 10.0 mi NE 9.2 mph - N/A   Overcast
6:15 AM 55.4 °F 51.8 °F 88% 30.02 in 10.0 mi NE 8.1 mph - N/A   Overcast
6:35 AM 55.4 °F 53.6 °F 94% 30.02 in 10.0 mi NE 8.1 mph - N/A   Overcast
6:55 AM 55.4 °F 51.8 °F 88% 30.03 in 10.0 mi East 8.1 mph - N/A   Overcast
7:15 AM 55.4 °F 51.8 °F 88% 30.03 in 10.0 mi NE 9.2 mph - N/A   Overcast
7:35 AM 55.4 °F 51.8 °F 88% 30.01 in 10.0 mi NE 6.9 mph - 0.01 in   Overcast
7:55 AM 55.4 °F 51.8 °F 88% 30.01 in 10.0 mi NE 9.2 mph - 0.01 in   Overcast
8:15 AM 55.4 °F 51.8 °F 88% 30.01 in 10.0 mi NNE 9.2 mph - N/A   Overcast
8:35 AM 55.4 °F 51.8 °F 88% 30.01 in 10.0 mi NE 8.1 mph - N/A   Overcast
8:55 AM 55.4 °F 53.6 °F 94% 30.00 in 10.0 mi NE 10.4 mph - N/A   Overcast
9:15 AM 55.4 °F 51.8 °F 88% 30.00 in 10.0 mi NE 9.2 mph - N/A   Overcast
9:35 AM 55.4 °F 53.6 °F 94% 29.99 in 10.0 mi NNE 10.4 mph 16.1 mph N/A   Overcast
10:15 AM 55.4 °F 53.6 °F 94% 29.98 in 10.0 mi NNE 9.2 mph 17.3 mph N/A   Overcast
10:35 AM 55.4 °F 53.6 °F 94% 29.97 in 10.0 mi NNE 10.4 mph 19.6 mph N/A   Overcast
10:55 AM 55.4 °F 51.8 °F 88% 29.97 in 10.0 mi NNE 10.4 mph 18.4 mph N/A   Overcast
11:15 AM 55.4 °F 51.8 °F 88% 29.97 in 10.0 mi NNE 11.5 mph 19.6 mph N/A   Overcast
11:35 AM 57.2 °F 53.6 °F 88% 29.96 in 10.0 mi NNE 9.2 mph 20.7 mph N/A   Overcast
11:55 AM 57.2 °F 53.6 °F 88% 29.96 in 10.0 mi NNE 12.7 mph 19.6 mph N/A   Overcast
12:35 PM 57.2 °F 53.6 °F 88% 29.94 in 10.0 mi NNE 12.7 mph 20.7 mph N/A   Overcast
12:55 PM 57.2 °F 53.6 °F 88% 29.93 in 10.0 mi NNE 13.8 mph 23.0 mph N/A   Overcast
1:15 PM 57.2 °F 53.6 °F 88% 29.92 in 10.0 mi NNE 13.8 mph 21.9 mph N/A   Overcast
1:35 PM 57.2 °F 53.6 °F 88% 29.91 in 10.0 mi NNE 13.8 mph 23.0 mph N/A   Overcast
2:15 PM 57.2 °F 51.8 °F 82% 29.91 in 10.0 mi NNE 12.7 mph 21.9 mph N/A   Overcast
2:35 PM 57.2 °F 51.8 °F 82% 29.90 in 10.0 mi NNE 13.8 mph 23.0 mph N/A   Overcast
3:15 PM 57.2 °F 51.8 °F 82% 29.89 in 10.0 mi NNE 10.4 mph 21.9 mph N/A   Overcast
3:35 PM 57.2 °F 51.8 °F 82% 29.89 in 10.0 mi NNE 12.7 mph 20.7 mph N/A   Overcast
3:55 PM 57.2 °F 51.8 °F 82% 29.88 in 10.0 mi NNE 12.7 mph 21.9 mph N/A   Overcast
4:15 PM 57.2 °F 51.8 °F 82% 29.87 in 10.0 mi NNE 10.4 mph 21.9 mph N/A   Overcast
4:35 PM 57.2 °F 51.8 °F 82% 29.87 in 10.0 mi NNE 11.5 mph 17.3 mph N/A   Overcast
4:55 PM 57.2 °F 51.8 °F 82% 29.87 in 10.0 mi NNE 9.2 mph 19.6 mph N/A   Overcast
5:15 PM 57.2 °F 51.8 °F 82% 29.87 in 10.0 mi NNE 10.4 mph 19.6 mph N/A   Overcast
5:35 PM 57.2 °F 51.8 °F 82% 29.87 in 10.0 mi NNE 10.4 mph 20.7 mph N/A   Overcast
5:55 PM 55.4 °F 51.8 °F 88% 29.87 in 9.0 mi NNE 13.8 mph 24.2 mph N/A   Overcast
6:15 PM 55.4 °F 51.8 °F 88% 29.86 in 10.0 mi NNE 11.5 mph 20.7 mph N/A   Overcast
6:35 PM 55.4 °F 51.8 °F 88% 29.86 in 10.0 mi NNE 11.5 mph 20.7 mph N/A   Overcast
6:55 PM 55.4 °F 51.8 °F 88% 29.87 in 10.0 mi NNE 11.5 mph 20.7 mph N/A   Overcast
7:15 PM 55.4 °F 51.8 °F 88% 29.87 in 10.0 mi NNE 10.4 mph 18.4 mph N/A   Overcast
7:35 PM 55.4 °F 51.8 °F 88% 29.88 in 10.0 mi NNE 12.7 mph 19.6 mph N/A   Overcast
7:55 PM 55.4 °F 48.2 °F 77% 29.87 in 10.0 mi NNE 12.7 mph 21.9 mph N/A   Overcast
8:15 PM 53.6 °F 50.0 °F 88% 29.87 in 6.0 mi NNE 8.1 mph - N/A   Overcast
8:35 PM 53.6 °F 50.0 °F 88% 29.87 in 10.0 mi NNE 9.2 mph 18.4 mph 0.01 in   Overcast
8:55 PM 53.6 °F 48.2 °F 82% 29.87 in 10.0 mi NNE 16.1 mph 20.7 mph 0.01 in   Overcast
9:15 PM 53.6 °F 48.2 °F 82% 29.86 in 10.0 mi NNE 9.2 mph 18.4 mph 0.01 in   Overcast
9:35 PM 53.6 °F 48.2 °F 82% 29.87 in 10.0 mi NNE 9.2 mph 16.1 mph 0.02 in   Overcast
9:55 PM 53.6 °F 48.2 °F 82% 29.86 in 6.0 mi North 3.5 mph - 0.05 in   Overcast
10:15 PM 51.8 °F 48.2 °F 88% 29.86 in 9.0 mi North 6.9 mph - N/A   Overcast
10:35 PM 51.8 °F 48.2 °F 88% 29.87 in 8.0 mi North 6.9 mph - N/A   Overcast
10:55 PM 51.8 °F 48.2 °F 88% 29.86 in 7.0 mi North 5.8 mph - N/A   Overcast
11:15 PM 51.8 °F 48.2 °F 88% 29.86 in 5.0 mi NNW 5.8 mph - 0.01 in   Overcast
11:35 PM 51.8 °F 48.2 °F 88% 29.85 in 10.0 mi North 9.2 mph - 0.01 in   Overcast
11:55 PM 51.8 °F 46.4 °F 82% 29.84 in 10.0 mi North 9.2 mph - 0.01 in   Overcast